Location: Braunsdorf
(50.7357°N, 11.9136°E)
Time: 09:06:37
(UTC+00:00)

STARLINK-1134 - Pass Details

Date: 17 February 2020
Orbit: 549 x 551 km, 53.0° (Epoch: 10 April)

Event Time Altitude Azimuth Distance (km) Brightness Sun altitude
Exits shadow 05:23:51 13° 287° (WNW) 1,636 5.4 -9.8°
Maximum altitude 05:27:30 68° 9° (N) 597 3.8 -9.2°
Drops below altitude 10° 05:31:39 10° 94° (E) 1,830 8.0 -8.6°
Sets 05:33:54 0° 97° (E) 2,723 9.7 -8.2°
